Le nostre stazioni meteo in Italia

Pubblicità
Il mio iltempo24.it
Arezzo, Italia (16172): Temperatura & dewpoint: 07.11.2019 00:00:00 - 13.11.2019 00:00:00 (CET)Arezzo, Italia (16172): velocità del vento: 07.11.2019 00:00:00 - 13.11.2019 00:00:00 (CET)Arezzo, Italia (16172): direzione del vento: 07.11.2019 00:00:00 - 13.11.2019 00:00:00 (CET)Arezzo, Italia (16172): reduced air pressure: 07.11.2019 00:00:00 - 13.11.2019 00:00:00 (CET)Arezzo, Italia (16172): visibility: 07.11.2019 00:00:00 - 13.11.2019 00:00:00 (CET)
Data & Tempo tt [°C] td [°C] ff [km/h] ff [kn] dd ppp [hPa] vv [km]
13.11.2019 00:00:00 - - - - - - -
12.11.2019 23:00:00 - - - - - - -
12.11.2019 22:00:00 - - - - - - -
12.11.2019 21:00:00 - - - - - - -
12.11.2019 20:00:00 - - - - - - -
12.11.2019 19:00:00 11,0 10,5 5 3 NE 996,0 4,0
12.11.2019 18:00:00 - - - - - - -
12.11.2019 17:00:00 - - - - - - -
12.11.2019 16:00:00 13,0 8,9 8 4 NNE 993,8 17
12.11.2019 15:00:00 - - - - - - -
12.11.2019 14:00:00 - - - - - - -
12.11.2019 13:00:00 14,2 8,6 9 5 N 995,9 18
12.11.2019 12:00:00 - - - - - - -
12.11.2019 11:00:00 - - - - - - -
12.11.2019 10:00:00 13,0 8,9 8 4 N 998,8 16
12.11.2019 09:00:00 - - - - - - -
12.11.2019 08:00:00 - - - - - - -
12.11.2019 07:00:00 9,6 8,7 0 0 N 1001,1 14
12.11.2019 06:00:00 - - - - - - -
12.11.2019 05:00:00 - - - - - - -
12.11.2019 04:00:00 - - - - - - -
12.11.2019 03:00:00 - - - - - - -
12.11.2019 02:00:00 - - - - - - -
12.11.2019 01:00:00 - - - - - - -
12.11.2019 00:00:00 - - - - - - -
11.11.2019 23:00:00 - - - - - - -
11.11.2019 22:00:00 - - - - - - -
11.11.2019 21:00:00 - - - - - - -
11.11.2019 20:00:00 - - - - - - -
11.11.2019 19:00:00 11,8 11,2 0 0 N 1009,4 12
11.11.2019 18:00:00 - - - - - - -
11.11.2019 17:00:00 - - - - - - -
11.11.2019 16:00:00 14,0 11,7 4 2 N 1009,8 16
11.11.2019 15:00:00 - - - - - - -
11.11.2019 14:00:00 - - - - - - -
11.11.2019 13:00:00 14,6 9,8 4 2 OSO 1011,0 16
11.11.2019 12:00:00 - - - - - - -
11.11.2019 11:00:00 - - - - - - -
11.11.2019 10:00:00 11,2 10,6 0 0 N 1012,4 13
11.11.2019 09:00:00 - - - - - - -
11.11.2019 08:00:00 - - - - - - -
11.11.2019 07:00:00 10,0 9,4 4 2 E 1012,2 13
11.11.2019 06:00:00 - - - - - - -
11.11.2019 05:00:00 - - - - - - -
11.11.2019 04:00:00 - - - - - - -
11.11.2019 03:00:00 - - - - - - -
11.11.2019 02:00:00 - - - - - - -
11.11.2019 01:00:00 - - - - - - -
11.11.2019 00:00:00 - - - - - - -
10.11.2019 23:00:00 - - - - - - -
10.11.2019 22:00:00 - - - - - - -
10.11.2019 21:00:00 - - - - - - -
10.11.2019 20:00:00 - - - - - - -
10.11.2019 19:00:00 9,4 7,5 5 3 E 1010,7 14
10.11.2019 18:00:00 - - - - - - -
10.11.2019 17:00:00 - - - - - - -
10.11.2019 16:00:00 13,4 7,6 0 0 N 1008,7 18
10.11.2019 15:00:00 - - - - - - -
10.11.2019 14:00:00 - - - - - - -
10.11.2019 13:00:00 13,4 7,2 0 0 N 1008,6 20
10.11.2019 12:00:00 - - - - - - -
10.11.2019 11:00:00 - - - - - - -
10.11.2019 10:00:00 8,6 5,7 0 0 N 1008,9 20
10.11.2019 09:00:00 - - - - - - -
10.11.2019 08:00:00 - - - - - - -
10.11.2019 07:00:00 2,6 2,2 4 2 S 1008,9 10
10.11.2019 06:00:00 - - - - - - -
10.11.2019 05:00:00 - - - - - - -
10.11.2019 04:00:00 - - - - - - -
10.11.2019 03:00:00 - - - - - - -
10.11.2019 02:00:00 - - - - - - -
10.11.2019 01:00:00 - - - - - - -
10.11.2019 00:00:00 - - - - - - -
09.11.2019 23:00:00 - - - - - - -
09.11.2019 22:00:00 - - - - - - -
09.11.2019 21:00:00 - - - - - - -
09.11.2019 20:00:00 - - - - - - -
09.11.2019 19:00:00 9,2 8,3 4 2 ESE 1008,9 14
09.11.2019 18:00:00 - - - - - - -
09.11.2019 17:00:00 - - - - - - -
09.11.2019 16:00:00 13,0 8,3 0 0 N 1008,5 18
09.11.2019 15:00:00 - - - - - - -
09.11.2019 14:00:00 - - - - - - -
09.11.2019 13:00:00 13,8 6,9 5 3 S 1009,3 20
09.11.2019 12:00:00 - - - - - - -
09.11.2019 11:00:00 - - - - - - -
09.11.2019 10:00:00 9,0 6,3 0 0 N 1010,1 14
09.11.2019 09:00:00 - - - - - - -
09.11.2019 08:00:00 - - - - - - -
09.11.2019 07:00:00 5,2 4,8 0 0 N 1009,6 10
09.11.2019 06:00:00 - - - - - - -
09.11.2019 05:00:00 - - - - - - -
09.11.2019 04:00:00 - - - - - - -
09.11.2019 03:00:00 - - - - - - -
09.11.2019 02:00:00 - - - - - - -
09.11.2019 01:00:00 - - - - - - -
09.11.2019 00:00:00 - - - - - - -
08.11.2019 23:00:00 - - - - - - -
08.11.2019 22:00:00 - - - - - - -
08.11.2019 21:00:00 - - - - - - -
08.11.2019 20:00:00 - - - - - - -
08.11.2019 19:00:00 10,4 9,5 8 4 SSO 1004,7 11
08.11.2019 18:00:00 - - - - - - -
08.11.2019 17:00:00 - - - - - - -
08.11.2019 16:00:00 12,2 10,4 9 5 SE 1003,2 13
08.11.2019 15:00:00 - - - - - - -
08.11.2019 14:00:00 - - - - - - -
08.11.2019 13:00:00 13,2 10,7 13 7 OSO 1003,1 7
08.11.2019 12:00:00 - - - - - - -
08.11.2019 11:00:00 - - - - - - -
08.11.2019 10:00:00 13,2 9,8 9 5 S 1003,1 7
08.11.2019 09:00:00 - - - - - - -
08.11.2019 08:00:00 - - - - - - -
08.11.2019 07:00:00 11,0 9,2 11 6 SSE 1003,4 6
08.11.2019 06:00:00 - - - - - - -
08.11.2019 05:00:00 - - - - - - -
08.11.2019 04:00:00 - - - - - - -
08.11.2019 03:00:00 - - - - - - -
08.11.2019 02:00:00 - - - - - - -
08.11.2019 01:00:00 - - - - - - -
08.11.2019 00:00:00 - - - - - - -
07.11.2019 23:00:00 - - - - - - -
07.11.2019 22:00:00 - - - - - - -
07.11.2019 21:00:00 - - - - - - -
07.11.2019 20:00:00 - - - - - - -
07.11.2019 19:00:00 9,0 7,9 0 0 N 1008,9 11
07.11.2019 18:00:00 - - - - - - -
07.11.2019 17:00:00 - - - - - - -
07.11.2019 16:00:00 13,2 8,3 9 5 ONO 1008,4 15
07.11.2019 15:00:00 - - - - - - -
07.11.2019 14:00:00 - - - - - - -
07.11.2019 13:00:00 13,2 9,8 9 5 SSO 1008,9 11
07.11.2019 12:00:00 - - - - - - -
07.11.2019 11:00:00 - - - - - - -
07.11.2019 10:00:00 10,4 8,3 0 0 N 1009,6 0,8
07.11.2019 09:00:00 - - - - - - -
07.11.2019 08:00:00 - - - - - - -
07.11.2019 07:00:00 6,2 5,8 0 0 N 1018,5 0,6
07.11.2019 06:00:00 - - - - - - -
07.11.2019 05:00:00 - - - - - - -
07.11.2019 04:00:00 - - - - - - -
07.11.2019 03:00:00 - - - - - - -
07.11.2019 02:00:00 - - - - - - -
07.11.2019 01:00:00 - - - - - - -
07.11.2019 00:00:00 - - - - - - -

tt = Temperatura
td = dewpoint
ff = velocità del vento
dd = direzione del vento
ppp = reduced air pressure
vv = visibility

Stazioni seguenti

WeatherPro
AMSI
MeteoEarth